Location: Gniazdowice
(50.2124°N, 20.2673°E)
Time: 23:05:23
(UTC+00:00)

Meteor 1-4 Rocket - Pass Details

Date: 23 May 2024
Orbit: 357 x 378 km, 81.2° (Epoch: 22 June)

Event Time Altitude Azimuth Distance (km) Brightness Sun altitude
Exits shadow 23:28:56 16° 106° (ESE) 1,030 4.2 -18.2°
Drops below altitude 10° 23:31:31 10° 47° (NE) 1,350 5.6 -18.1°
Enters shadow 00:25:02 -72° 194° (SSW) 12,502 9.7 -15.1°
Maximum altitude 01:02:18 23° 290° (WNW) 819 3.6 -12.1°
